DW2959 Murcia ES current weather conditions

sailwx.info

Wind from 072 at 0 knots

Air temperature 28.3° C
Dewpoint 21.6° C

Last reported at 2014-Aug-21 09:46 UTC.
Time now 2014-Aug-21 10:12 UTC

Location: N 38°00' W 001°02'.
View on Google Maps.

See reports from other nearby stations

  
Tides and Currents Weather Stations Pressure Air Temp Water Temp Dewpoint Dewpoint Depression Visibility Wind Speed Wind Dir Waves Ship Positions
date/time (UTC)wind fromknots sea level pressurealtimeterstation pressurevisibilityair tempwater tempwave heightnotes
2014-Aug-21 09:46 072 0 28.3
2014-Aug-21 09:31 076 1 28.3
2014-Aug-21 09:16 089 0 27.8
2014-Aug-21 09:01 096 0 27.2
2014-Aug-21 08:46 067 0 26.7
2014-Aug-21 08:31 067 25.6
2014-Aug-21 08:16 212 25.0
2014-Aug-21 08:01 212 0 25.0
2014-Aug-21 07:46 212 2 24.4
2014-Aug-21 07:32 165 1 24.4
2014-Aug-21 07:16 105 0 23.9
2014-Aug-21 07:01 092 0 23.3
2014-Aug-21 06:46 092 23.3
2014-Aug-21 06:31 092 22.8
2014-Aug-21 06:16 091 22.2
2014-Aug-21 06:01
2014-Aug-21 05:46
2014-Aug-21 05:31
2014-Aug-21 05:16
2014-Aug-21 05:00
2014-Aug-21 04:45
2014-Aug-21 04:30
2014-Aug-21 04:15
2014-Aug-21 04:00
2014-Aug-21 03:45
2014-Aug-21 03:30
2014-Aug-21 03:15
2014-Aug-21 03:00 092 22.2
2014-Aug-21 02:45 091 22.2
2014-Aug-21 02:30 092 22.8
2014-Aug-21 02:15 092 22.8
2014-Aug-21 01:45 092 23.3
2014-Aug-21 01:30 092 23.3
2014-Aug-21 01:15 091 23.9
2014-Aug-21 01:00 092 23.9
2014-Aug-21 00:45 092 23.9
2014-Aug-21 00:30 092 0 23.9
2014-Aug-21 00:15 090 23.9
2014-Aug-21 00:00 082 0 23.9
2014-Aug-20 23:45 082 23.9
2014-Aug-20 23:30 082 0 23.9
2014-Aug-20 23:14 082 0 24.4
2014-Aug-20 22:59 081 24.4
2014-Aug-20 22:44 080 24.4
2014-Aug-20 22:29 080 0 25.0
2014-Aug-20 22:14 080 0 25.0
2014-Aug-20 21:59 076 1 25.0
2014-Aug-20 21:44 078 1 25.6
2014-Aug-20 21:29 071 0 25.6
2014-Aug-20 21:14 083 1 26.1
2014-Aug-20 20:59 061 1 26.1
2014-Aug-20 20:44 061 1 26.7
2014-Aug-20 20:29 056 2 27.2
2014-Aug-20 20:14 042 2 27.8
2014-Aug-20 19:59 355 2 28.3
2014-Aug-20 19:44 283 3 28.9
2014-Aug-20 19:29 187 2 29.4
2014-Aug-20 19:14 178 6 29.4
2014-Aug-20 18:59 173 7 30.0
2014-Aug-20 18:44 173 4 30.0
2014-Aug-20 18:29 185 1 30.6
2014-Aug-20 18:14 171 5 30.6
2014-Aug-20 17:59 185 6 31.1
2014-Aug-20 17:44 211 8 31.1
2014-Aug-20 17:29 166 9 31.1
2014-Aug-20 17:14 166 10 31.1
2014-Aug-20 16:59 145 11 31.7
2014-Aug-20 16:44 177 11 31.7
2014-Aug-20 16:29 177 10 32.2
2014-Aug-20 16:14 197 9 32.8
2014-Aug-20 15:59 188 9 32.8
2014-Aug-20 15:44 163 9 32.8
2014-Aug-20 15:28 202 8 32.8
2014-Aug-20 15:13 168 8 32.8
2014-Aug-20 14:58 169 8 32.8
2014-Aug-20 14:43 166 7 32.8
2014-Aug-20 14:28 167 8 32.8
2014-Aug-20 14:13 136 6 33.3
2014-Aug-20 13:58 093 3 33.3
2014-Aug-20 13:43 153 6 33.9
2014-Aug-20 13:28 216 0 34.4
2014-Aug-20 13:13 090 2 33.9
2014-Aug-20 12:58 067 2 33.9
2014-Aug-20 12:43 071 1 32.8
2014-Aug-20 12:28 017 1 32.8
2014-Aug-20 12:13 098 0 32.8
2014-Aug-20 11:58 024 1 32.2
2014-Aug-20 11:43
2014-Aug-20 11:30
2014-Aug-20 11:23 034 1 31.1
2014-Aug-20 11:08 063 0 31.1
2014-Aug-20 10:53 066 1 30.6
2014-Aug-20 10:38 044 0 30.0
2014-Aug-20 10:23 045 0 29.4
2014-Aug-20 10:08 011 1 28.3
2014-Aug-20 09:53 009 1 28.3
2014-Aug-20 09:38 265 27.2
2014-Aug-20 09:23 263 1 26.7
2014-Aug-20 09:08 271 2 26.1
2014-Aug-20 08:53 275 1 25.6
2014-Aug-20 08:38 269 2 25.6
2014-Aug-20 08:22 267 2 25.0
2014-Aug-20 08:07 242 2 25.0
2014-Aug-20 07:52 221 1 24.4
2014-Aug-20 07:37 223 2 23.9
2014-Aug-20 07:22 221 1 23.9
2014-Aug-20 07:07 243 1 23.3
2014-Aug-20 06:52 200 0 22.8
2014-Aug-20 06:37 189 0 22.2
2014-Aug-20 06:22 111 0 21.7
2014-Aug-20 06:07
2014-Aug-20 05:52
2014-Aug-20 05:37
2014-Aug-20 05:22
2014-Aug-20 05:07
2014-Aug-20 04:52
2014-Aug-20 04:37
2014-Aug-20 04:21
2014-Aug-20 03:51
2014-Aug-20 03:36
2014-Aug-20 03:21
2014-Aug-20 03:06
2014-Aug-20 02:51 089 21.7
2014-Aug-20 02:36 089 21.7
2014-Aug-20 02:21 089 21.7
2014-Aug-20 02:06 089 22.2
2014-Aug-20 01:51 089 0 22.2
2014-Aug-20 01:36 089 0 22.2
2014-Aug-20 01:21 089 22.2
2014-Aug-20 01:06 089 22.8
2014-Aug-20 00:51 089 22.8
2014-Aug-20 00:36 089 23.3
2014-Aug-20 00:21 089 23.3
2014-Aug-20 00:06 089 23.3
2014-Aug-19 23:51 089 0 23.3
2014-Aug-19 23:36 088 0 23.9
2014-Aug-19 23:21 089 23.9
2014-Aug-19 23:06 089 23.9
2014-Aug-19 22:51 089 1 23.9
2014-Aug-19 22:36 087 1 24.4
2014-Aug-19 22:21 086 1 24.4
2014-Aug-19 22:06 092 1 24.4
2014-Aug-19 21:51 128 0 24.4
2014-Aug-19 21:36 136 25.0
2014-Aug-19 21:21 136 25.0
2014-Aug-19 21:06 136 25.0
2014-Aug-19 20:50 136 25.0
2014-Aug-19 20:35 136 1 25.6
2014-Aug-19 20:20 136 0 25.6
2014-Aug-19 20:05 137 25.6
2014-Aug-19 19:50 137 26.1
2014-Aug-19 19:35 137 0 26.1
2014-Aug-19 19:20 133 2 26.1
2014-Aug-19 19:05 159 1 26.7
2014-Aug-19 18:50 159 3 26.7
2014-Aug-19 18:35 155 4 27.2
2014-Aug-19 18:05 125 3 28.3
2014-Aug-19 17:50 162 6 28.9
2014-Aug-19 17:35 163 5 28.9
2014-Aug-19 17:20 150 4 29.4
2014-Aug-19 17:05 143 5 29.4
2014-Aug-19 16:50 165 7 29.4
2014-Aug-19 16:35 168 6 30.0
2014-Aug-19 16:20 161 6 30.0
2014-Aug-19 16:05 167 5 30.6
2014-Aug-19 15:50 171 4 31.1
2014-Aug-19 15:35 167 6 31.1
2014-Aug-19 15:20 153 6 31.7
2014-Aug-19 15:05 117 7 31.7
2014-Aug-19 14:50 123 4 32.8
2014-Aug-19 14:35 142 5 32.8
2014-Aug-19 14:20 123 4 32.8
2014-Aug-19 14:05 097 3 32.8
2014-Aug-19 13:50 079 3 32.8
2014-Aug-19 13:35 100 2 32.8
2014-Aug-19 13:20 074 3 32.8
2014-Aug-19 13:05 071 1 32.2
2014-Aug-19 12:50 163 2 31.7
2014-Aug-19 12:35 089 3 31.7
2014-Aug-19 12:20 172 4 31.7
2014-Aug-19 12:05 174 3 31.7
2014-Aug-19 11:50 129 4 31.1
2014-Aug-19 11:35 145 5 31.1
2014-Aug-19 11:20 153 4 31.1
2014-Aug-19 11:05 157 3 31.1
2014-Aug-19 10:50 134 3 31.1
2014-Aug-19 10:35 175 1 31.1
2014-Aug-19 10:20 091 2 30.6
2014-Aug-19 10:05 090 2 30.0